Location: Rio Negrinho
(26.2394°S, 49.4999°W)
Time: 20:15:09
(UTC+00:00)

Cosmos 1844 - Pass Details

Date: 04 October 2020
Orbit: 824 x 866 km, 70.9° (Epoch: 20 October)

Event Time Altitude Azimuth Distance (km) Brightness Sun altitude
Rises 07:58:49 0° 338° (NNW) 3,367 6.5 -13.0°
Reaches altitude 10° 08:01:14 10° 336° (NNW) 2,446 5.8 -12.5°
Maximum altitude 08:06:51 74° 251° (WSW) 886 3.7 -11.3°
Drops below altitude 10° 08:12:36 10° 166° (SSE) 2,502 6.5 -10.0°
Sets 08:15:06 0° 163° (SSE) 3,450 7.3 -9.4°
